DW0912 Weather Reports


time (UTC)temp
F
wind
direction
speed
knots
gust
knots
rain 1hr
in
rain 24hr
in
rain mn
in
humidity
%
barometer
mb
20260507031558 60 0 0.0 0.0 0.00 0.00 0.00 76 1017.0
20260507030057 61 0 0.0 0.0 0.00 0.00 0.00 75 1016.9
20260507024555 62 0 0.0 0.0 0.00 0.00 0.00 73 1016.8
20260507023055 63 0 0.0 0.0 0.00 0.00 0.00 71 1016.7
20260507021555 65 0 0.0 0.0 0.00 0.00 0.00 68 1016.5
20260507020104 66 0 0.0 0.0 0.00 0.00 0.00 67 1016.4
20260507014606 66 0 0.0 0.0 0.00 0.00 0.00 66 1016.3
20260507013055 66 0 0.0 0.0 0.00 0.00 0.00 64 1016.3
20260507011603 67 0 0.0 0.0 0.00 0.00 0.00 61 1016.4
20260507010055 68 0 0.0 0.0 0.00 0.00 0.00 59 1016.5
20260507004553 68 0 0.0 0.0 0.00 0.00 0.00 59 1016.4
20260507003051 67 0 0.0 0.0 0.00 0.00 0.00 59 1016.5
20260507001607 68 0 0.0 0.0 0.00 0.00 0.00 60 1016.4
20260507000058 68 0 0.0 0.0 0.00 0.00 0.00 59 1016.4
20260506234554 69 0 0.0 0.0 0.00 0.00 0.00 59 1016.4
20260506233052 70 0 0.0 0.0 0.00 0.00 0.00 59 1016.3
20260506231552 70 0 0.0 0.0 0.00 0.00 0.00 60 1016.3
20260506230057 69 0 0.0 0.0 0.00 0.00 0.00 60 1016.4
20260506224554 70 0 0.0 0.0 0.00 0.00 0.00 60 1016.5
20260506223050 69 0 0.0 0.0 0.00 0.00 0.00 61 1016.7
20260506221557 70 0 0.0 0.0 0.00 0.00 0.00 59 1016.9
20260506214552 71 0 0.0 0.0 0.00 0.00 0.00 57 1017.4
20260506213102 70 0 0.0 0.0 0.00 0.00 0.00 57 1017.5
20260506211554 70 0 0.0 0.0 0.00 0.00 0.00 57 1017.5
20260506210107 70 0 0.0 0.0 0.00 0.00 0.00 59 1017.4
20260506204553 70 0 0.0 0.0 0.00 0.00 0.00 59 1017.5
20260506203138 70 0 0.0 0.0 0.00 0.00 0.00 61 1017.6
20260506201552 70 0 0.0 0.0 0.00 0.00 0.00 61 1017.9
20260506200054 70 0 0.0 0.0 0.00 0.00 0.00 61 1017.8
20260506194554 69 0 0.0 0.0 0.00 0.00 0.00 61 1017.9
20260506193051 69 0 0.0 0.0 0.00 0.00 0.00 60 1018.0
20260506191554 69 0 0.0 0.0 0.00 0.00 0.00 59 1018.1
20260506190055 69 0 0.0 0.0 0.00 0.00 0.00 57 1018.2
20260506184600 69 0 0.0 0.0 0.00 0.00 0.00 57 1018.3
20260506183059 68 0 0.0 0.0 0.00 0.00 0.00 56 1018.5
20260506181556 67 0 0.0 0.0 0.00 0.00 0.00 59 1018.6
20260506180055 67 0 0.0 0.0 0.00 0.00 0.00 61 1018.7
20260506174606 66 0 0.0 0.0 0.00 0.00 0.00 61 1018.5
20260506173056 65 0 0.0 0.0 0.00 0.00 0.00 62 1018.4
20260506171611 64 0 0.0 0.0 0.00 0.00 0.00 63 1018.6
20260506170054 64 0 0.0 0.0 0.00 0.00 0.00 66 1018.5
20260506164558 63 0 0.0 0.0 0.00 0.00 0.00 69 1018.6
20260506163121 61 0 0.0 0.0 0.00 0.00 0.00 73 1018.5
20260506161553 59 0 0.0 0.0 0.00 0.00 0.00 79 1018.6
20260506160053 57 0 0.0 0.0 0.00 0.00 0.00 83 1018.4
20260506154555 56 0 0.0 0.0 0.00 0.00 0.00 85 1018.5
20260506153134 54 0 0.0 0.0 0.00 0.00 0.00 86 1018.5
20260506151555 52 0 0.0 0.0 0.00 0.00 0.00 87 1018.6
20260506150056 51 0 0.0 0.0 0.00 0.00 0.00 87 1018.6
20260506144551 50 0 0.0 0.0 0.00 0.00 0.00 87 1018.7
20260506143055 49 0 0.0 0.0 0.00 0.00 0.00 88 1018.5
20260506141554 47 0 0.0 0.0 0.00 0.00 0.00 88 1018.6
20260506140052 45 0 0.0 0.0 0.00 0.00 0.00 87 1018.5
20260506134555 44 0 0.0 0.0 0.00 0.00 0.00 87 1018.4
20260506133052 44 0 0.0 0.0 0.00 0.00 0.00 87 1018.4
20260506131607 44 0 0.0 0.0 0.00 0.00 0.00 87 1018.1
20260506130057 44 0 0.0 0.0 0.00 0.00 0.00 87 1018.1
20260506124556 44 0 0.0 0.0 0.00 0.00 0.00 87 1018.1
20260506123107 44 0 0.0 0.0 0.00 0.00 0.00 86 1017.9
20260506121611 45 0 0.0 0.0 0.00 0.00 0.00 86 1017.8
20260506120055 45 0 0.0 0.0 0.00 0.00 0.00 86 1017.8
20260506114552 45 0 0.0 0.0 0.00 0.00 0.00 86 1017.9
20260506113053 46 0 0.0 0.0 0.00 0.00 0.00 86 1017.9
20260506111555 46 0 0.0 0.0 0.00 0.00 0.00 86 1017.9
20260506104552 46 0 0.0 0.0 0.00 0.00 0.00 86 1017.6
20260506103051 46 0 0.0 0.0 0.00 0.00 0.00 86 1017.6
20260506101613 46 0 0.0 0.0 0.00 0.00 0.00 86 1017.6
20260506100051 46 0 0.0 0.0 0.00 0.00 0.00 86 1017.8
20260506094556 46 0 0.0 0.0 0.00 0.00 0.00 85 1017.8
20260506093059 47 0 0.0 0.0 0.00 0.00 0.00 85 1017.9
20260506091552 47 0 0.0 0.0 0.00 0.00 0.00 85 1017.9
20260506084611 48 0 0.0 0.0 0.00 0.00 0.00 84 1018.0
20260506083054 48 0 0.0 0.0 0.00 0.00 0.00 84 1018.2
20260506081552 48 0 0.0 0.0 0.00 0.00 0.00 84 1018.2
20260506073057 50 0 0.0 0.0 0.00 0.00 0.00 84 1018.1
20260506071557 50 0 0.0 0.0 0.00 0.00 0.00 83 1018.1
20260506061553 51 0 0.0 0.0 0.00 0.00 0.00 82 1017.5
20260506050112 53 0 0.0 0.0 0.00 0.00 0.00 80 1017.2
20260506044551 54 0 0.0 0.0 0.00 0.00 0.00 79 1016.9
20260506043059 54 0 0.0 0.0 0.00 0.00 0.00 79 1016.7
20260506041604 55 0 0.0 0.0 0.00 0.00 0.00 78 1016.5
20260506040053 56 0 0.0 0.0 0.00 0.00 0.00 78 1016.2
20260506034556 56 0 0.0 0.0 0.00 0.00 0.00 77 1016.0
20260506033053 57 0 0.0 0.0 0.00 0.00 0.00 77 1015.9